Miscellaneous Local Product
Issued by NWS Hastings, NE

Home | Current Version | Previous Version | Graphics & Text | Print | Product List | Glossary On
Versions: 1 2 3 4 5 6 7 8 9 10 11 12 13 14 15 16 17 18 19 20 21 22 23 24 25 26 27 28 29 30 31 32 33 34 35 36 37 38 39 40 41 42 43 44 45 46 47 48 49 50
000
AXUS43 KGID 230902
MISGRI

GID CWA HOURLY WEATHER ROUNDUP
NATIONAL WEATHER SERVICE HASTINGS NE
400 AM CDT SAT JUL 23 2016

NOTE: "FAIR" INDICATES FEW OR NO CLOUDS BELOW 12,000 FEET WITH NO
SIGNIFICANT WEATHER AND/OR OBSTRUCTIONS TO VISIBILITY.

...SOUTH CENTRAL NEBRASKA...

CITY           SKY/WX    TMP DP  RH WIND       PRES   REMARKS
GRAND ISLAND   CLOUDY    73  70  90 NW14      29.95F
HASTINGS       CLOUDY    75  67  76 NW14G24   29.97R
KEARNEY        CLOUDY    72  66  83 NW7       29.96F
ORD            LGT RAIN  71  67  87 E7        29.92F
YORK           CLOUDY    75  70  83 W7        29.93R
AURORA         CLOUDY    74  72  92 NW6       29.94R
LEXINGTON      LGT RAIN  71  68  90 CALM      29.95F
HOLDREGE       CLOUDY    71  66  85 CALM      29.97F
HEBRON         CLOUDY    80  69  70 S9        29.90R

...NEBRASKA PANHANDLE...

CITY           SKY/WX    TMP DP  RH WIND       PRES   REMARKS
CHADRON        MOCLDY    69  61  75 S9        29.90F
ALLIANCE       CLOUDY    63  61  93 SW5       29.96F
SCOTTSBLUFF    CLOUDY    64  60  87 E6        29.97F
SIDNEY         CLOUDY    68  63  84 SW9       30.01F

...WESTERN AND NORTH CENTRAL NEBRASKA...

CITY           SKY/WX    TMP DP  RH WIND       PRES   REMARKS
VALENTINE      CLOUDY    76  61  59 SW7       29.90F
AINSWORTH      CLOUDY    70  67  89 S5        29.90F
ONEILL         CLOUDY    74  70  89 S16G22    29.91R
BROKEN BOW     LGT RAIN  69  68  96 SE7       29.90F
IMPERIAL       CLOUDY    73  63  70 S18G28    29.90F
NORTH PLATTE   CLOUDY    70  65  84 NE3       29.92S
MCCOOK         CLOUDY    72  66  81 E13       29.93F

...EASTERN NEBRASKA...

CITY           SKY/WX    TMP DP  RH WIND       PRES   REMARKS
NORFOLK        TSTM      78  71  79 W14       29.92R
SO SIOUX CITY  MOCLDY    81  78  91 SE9       29.85F
TEKAMAH        MOCLDY    79  76  90 S7        29.86F
COLUMBUS       CLOUDY    81  66  61 SW13      29.92R
ALBION         LGT RAIN  75  67  76 W13G21    29.94F
OMAHA EPPLEY   CLOUDY    83  74  74 SE10      29.88F
OFFUTT AFB     CLOUDY    81  75  81 SE9       29.87F
MILLARD        PTCLDY    81  75  80 SE6       29.88F
LINCOLN        PTCLDY    82  71  69 S13       29.88F
NEBRASKA CITY  CLOUDY    80  73  81 S10       29.91F
BEATRICE       CLOUDY    82  70  67 SE8       29.90S
FALLS CITY     CLOUDY    82  72  71 VRB5      29.92R THUNDER

...NORTHERN KANSAS...

CITY           SKY/WX    TMP DP  RH WIND       PRES   REMARKS
GOODLAND       PTCLDY    69  66  90 E5        29.98F
HILL CITY      CLOUDY    77  66  68 NE9       29.99R
NORTON         RAIN      73  63  68 N8        29.98R
SMITH CENTER   PTCLDY    75  70  83 NW21      29.95R
BELOIT         MOCLDY    75  70  83 CALM      29.95R
HAYS           CLOUDY    82  57  42 NW13      29.95R
RUSSELL        MOCLDY    83  62  49 S12       29.91S
CONCORDIA      CLOUDY    81  67  62 S15       29.90S
SALINA         CLOUDY    84  65  52 S8        29.91S
TOPEKA         MOCLDY    82  71  69 CALM      29.93S



USA.gov is the U.S. government's official web portal to all federal, state and local government web resources and services.